Find Starlink 3639

NORAD ID: 51789 Int'l Des: 2022-017 Owner: SPXS Country: US Constellation: starlink operational
LEOCIRCULAR

リアルタイム位置

3D地球を読み込み中...

Starlink 3639について

説明を読み込み中...

次回通過

Passes for default location (London). Set your location on the main map for personalized predictions.

高度履歴

Loading altitude history...

軌道要素

1 51789U 22017X 26104.49631013 .00012686 00000-0 81457-3 0 9993
2 51789 53.2167 188.3787 0001200 105.3668 254.7456 15.08799823227680
Epoch: Apr 14, 2026 • Age: 18 hours

現在のステータス

高度 544.3 km
速度 7.60 km/s
衛星直下点 46.66°N, 51.63°W
打ち上げ日 Feb 25, 2022
運用期間 4.1 years
タイプ internet

技術仕様

分類 Payload
質量 297.00 kg
乾燥質量 275.00 kg
総質量 297.00 kg
長さ 0.20 m
直径 2.80 m
スパン 9.00 m
形状 Box + pan
製造者 SPXS
バスタイプ Starlink
フェーズステータス In Orbit
所有者/国 SPXS/US

Most Searched